Regional Weather Roundup
Issued by NWS

Home | Current Version | Previous Version | Graphics & Text | Print | Product List | Glossary On
Versions: 1 2 3 4 5 6 7 8 9 10 11 12 13 14 15 16 17 18 19 20 21 22 23 24 25 26 27 28 29 30 31 32 33 34 35 36 37 38 39 40 41 42 43 44 45 46 47 48 49 50
854
ASUS43 KIND 270209
RWRIN

WEATHER ROUNDUP FOR INDIANA
NATIONAL WEATHER SERVICE INDIANAPOLIS IN
1000 PM EDT MON JUN 26 2017

NOTE: "FAIR" INDICATES FEW OR NO CLOUDS BELOW 12,000 FEET WITH NO
SIGNIFICANT WEATHER AND/OR OBSTRUCTIONS TO VISIBILITY.

* - STATION DOES NOT REPORT WEATHER SUCH AS PRECIPITATION OR FOG.

+ - STATION NOT QUALITY CONTROLLED BY THE NATIONAL WEATHER SERVICE.
    USE DATA WITH CAUTION...ESPECIALLY DEWPOINT AND RELATIVE
    HUMIDITY OBSERVATIONS.

INZ001>003-010>013-019-020-270300-
NORTHWEST INDIANA

CITY           SKY/WX    TMP DP  RH WIND       PRES   REMARKS
GARY /AIRPORT/ PTCLDY    64  41  42 NW14G26   30.05S
KNOX *+        PTCLDY    55  39  54 N5        30.05R
LA PORTE +     CLOUDY    59  48  67 NW5       30.06R
MICHIGAN CITY+ CLOUDY    61  45  55 N8        30.06R
MONTICELLO +   MOCLDY    60  52  76 NW8       30.05R
VALPARAISO     PTCLDY    60  50  69 N3        30.06S

$$

LMZ046-743>745-270300-
SOUTHERN LAKE MICHIGAN

STATION/POSITION TIME  TEMP    WIND        PRES    WAVE
                       AIR SEA DIR/SP/G            HT
                 (UTC) (F)     (DEG/KT/KT) (MB)    (FT)
BURNS HARBOR     0140   63     340/ 14/ 19 1017.6S
MICHIGAN CITY    0140   62     330/ 20/ 22   N/A
5NW MICH CITY    0200   63 65  330/ 16/ 21   N/A     5

$$

INZ004-005-014>016-021>024-270300-
NORTH CENTRAL INDIANA

CITY           SKY/WX    TMP DP  RH WIND       PRES   REMARKS
GOSHEN         CLOUDY    60  42  51 NW12      30.04R
LOGANSPORT +   CLOUDY    55  52  88 W3        30.07R
PERU/GRISSOM   MOCLDY    57  53  87 W8        30.04R
ROCHESTER +    MOCLDY    63  54  72 CALM      30.05R
SOUTH BEND     MOCLDY    57  47  69 NW6       30.06R
WARSAW +       MOCLDY    59  46  63 N6        30.04R

$$

INZ006>009-017-018-025>027-270300-
NORTHEAST INDIANA

CITY           SKY/WX    TMP DP  RH WIND       PRES   REMARKS
AUBURN +       CLOUDY    57  52  82 W3        30.03S
FORT WAYNE     MOCLDY    58  52  80 W8        30.03S
HUNTINGTON +   CLOUDY    57  55  94 SW6       30.04R
KENDALLVILLE + CLOUDY    61  47  60 N8        30.03R

$$

INZ028-029-035-036-043>045-051>053-270300-
WEST CENTRAL INDIANA

CITY           SKY/WX    TMP DP  RH WIND       PRES   REMARKS
CRAWFORDSVL +  CLOUDY    55  55 100 SW5       30.07F
GREENCASTLE +  CLEAR     55  50  82 CALM      30.09S
LAFAYETTE      CLEAR     55  53  93 W5        30.05S
TERRE HAUTE    CLEAR     60  49  66 N3        30.09S

$$

INZ030>032-037>040-046>048-054>057-064-065-270300-
CENTRAL INDIANA

CITY           SKY/WX    TMP DP  RH WIND       PRES   REMARKS
CP ATTERBURY + CLOUDY    61  50  67 NW3       30.10R
COLUMBUS       PTCLDY    63  46  55 W5        30.08S
FRANKFORT +    CLEAR     58  54  86 W3        30.07F
INDIANAPOLIS   MOCLDY    56  52  86 SW5       30.06F
-EAGLE CREEK   CLEAR     58  51  78 VRB3      30.06F
KOKOMO +       PTCLDY    58  52  80 W7        30.07R
MARION +       PTCLDY    55  52  88 SW7       30.06S
MT COMFORT *+  CLOUDY    55  52  88 W3        30.07F
SHELBYVILLE    PTCLDY    60  49  66 NW3       30.07F
ZIONSVILLE +   CLEAR     55  52  90 SW3       30.07S

$$

INZ033-034-041-042-049-050-058-059-270300-
EAST CENTRAL INDIANA

CITY           SKY/WX    TMP DP  RH WIND       PRES   REMARKS
MUNCIE         PTCLDY    58  51  78 SW6       30.06F
RICHMOND +     PTCLDY    59  46  63 N13       30.08R

$$

INZ060-061-067>069-081>083-085>088-270300-
SOUTHWEST INDIANA

CITY           SKY/WX    TMP DP  RH WIND       PRES   REMARKS
EVANSVILLE     CLOUDY    65  51  60 NE5       30.09S
HUNTINGBURG *+ CLOUDY    66  52  60 CALM      30.10S
WASHINGTON +   CLOUDY    61  58  88 CALM      30.09S

$$

INZ062-063-066-070>080-084-089>092-270300-
SOUTH CENTRAL AND SOUTHEAST INDIANA

CITY           SKY/WX    TMP DP  RH WIND       PRES   REMARKS
BEDFORD +      CLOUDY    63  46  55 CALM      30.08F
BLOOMINGTON    CLOUDY    60  49  66 CALM      30.08F
MADISON *+     CLOUDY    66  45  45 W3        30.10S
NORTH VERNON + CLOUDY    64  50  59 W5        30.08F
SEYMOUR +      CLOUDY    66  48  52 W6        30.08

$$





USA.gov is the U.S. government's official web portal to all federal, state and local government web resources and services.